Tracking 18917 objects as of 16-Jan-2018
HD Live streaming from Space Station
objects crossing your sky now

FENGYUN 1C DEB

Track FENGYUN 1C DEB now!
10-day predictions


NORAD ID: 32362
Int'l Code: 1999-025CZF
Perigee: 834.0 km
Apogee: 1,313.6 km
Inclination: 99.8 °
Period: 106.5 minutes
Semi major axis: 7444 km
RCS: 0.0022 m2 (small)
Launch date: May 10, 1999
Source: People's Republic of China (PRC)
Launch site: Taiyaun Space Center, China (TSC)

Note: This is SATELLITE DEBRIS
aabbcc
Your satellite tracking list
Your tracking list is empty




NASA's NSSDC Master Catalog

Two Line Element Set (TLE):
1 32362U 99025CZF 18011.05154743  .00000382  00000-0  47510-3 0  9994
2 32362  99.7896 316.6025 0322109 316.5443  41.0709 13.51516533519630
Source of the keplerian elements: AFSPC